Regional Weather Roundup
Issued by NWS

Home | Current Version | Previous Version | Graphics & Text | Print | Product List | Glossary On
Versions: 1 2 3 4 5 6 7 8 9 10 11 12 13 14 15 16 17 18 19 20 21 22 23 24 25 26 27 28 29 30 31 32 33 34 35 36 37 38 39 40 41 42 43 44 45 46 47 48 49 50
000
ASUS44 KMEG 280210
RWRTN
TENNESSEE HOURLY STATE WEATHER ROUNDUP
NATIONAL WEATHER SERVICE MEMPHIS TN
900 PM CDT FRI MAY 27 2016

TNZ002-004-019-021-049-052-054-088>092-280300-
WEST TENNESSEE

CITY           SKY/WX    TMP DP  RH WIND       PRES   REMARKS
MEMPHIS INTL   CLOUDY    71  65  81 S13       29.89F
NWS MEMPHIS      N/A     69 N/A N/A MISG        N/A
JACKSON        CLOUDY    76  64  66 S8        29.91F
DYERSBURG      CLOUDY    77  64  65 S8G20     29.87S
UNION CITY     CLEAR     75  68  78 SE13      29.87F
PARIS          CLEAR     73  64  73 S9        29.93S
LEXINGTON      CLEAR     75  64  69 S6        29.95R
$$

TNZ008-025-027-028-033-062-065-066-280300-
NORTH MIDDLE TENNESSEE

CITY           SKY/WX    TMP DP  RH WIND       PRES   REMARKS
NASHVILLE      CLOUDY    79  63  57 SW3       29.98R
CLARKSVILLE    CLOUDY    77  64  64 S7        29.95S
SMYRNA         CLOUDY    80  66  62 CALM      29.99R
COOKEVILLE     CLEAR     75  70  83 CALM      30.02R
CROSSVILLE     CLEAR     71  66  84 CALM      30.09R
$$

TNZ061-075-076-078-094-096-097-280300-
SOUTH MIDDLE TENNESSEE

CITY           SKY/WX    TMP DP  RH WIND       PRES   REMARKS
FAYETTEVILLE   CLOUDY    77  66  69 E3        30.03R
TULLAHOMA      MOCLDY    70  70 100 SW8       30.06R
WINCHESTER     CLOUDY    72  68  88 W6        30.05R
MCMINNVILLE    CLEAR     79  64  61 S3        30.03R
COLUMBIA       CLEAR     77  77 100 S5        29.98R
SHELBYVILLE    MOCLDY    77  64  65 SE8       30.04R
$$

TNZ017-018-042-046-047-280300-
NORTHEAST TENNESSEE

CITY           SKY/WX    TMP DP  RH WIND       PRES   REMARKS
TRI CITIES     MOCLDY    68  66  93 CALM      30.12R
$$

TNZ012-013-036-069-073-074-280300-
CENTRAL EAST TENNESSEE

CITY           SKY/WX    TMP DP  RH WIND       PRES   REMARKS
KNOXVILLE      PTCLDY    71  67  87 CALM      30.05R
OAK RIDGE      PTCLDY    72  68  87 CALM      30.07R
GATLINBURG     CLEAR     72  64  78 CALM      30.06R
$$

TNZ083-085-099-280300-
SOUTHEAST TENNESSEE

CITY           SKY/WX    TMP DP  RH WIND       PRES   REMARKS
CHATTANOOGA    MOCLDY    80  60  50 SE7       30.04R
$$

SKY/WX REPORTED AS FAIR MEANS FEW OR NO CLOUDS BELOW
12 THOUSAND FEET.





USA.gov is the U.S. government's official web portal to all federal, state and local government web resources and services.